DW2659 Weather Reports


time (UTC)temp
C
wind
direction
speed
KPH
gust
KPH
rain 1hr
cm
rain 24hr
cm
rain mn
cm
humidity
%
barometer
mb
20260904141402 30 130 6.4 9.7 0.00 0.00 0.00 65 1017.3
20260904140404 30 210 6.4 8.0 0.00 0.00 0.00 64 1017.3
20260904135903 30 144 3.2 8.0 0.00 0.00 0.00 67 1017.5
20260904134904 30 136 3.2 9.7 0.00 0.00 0.00 68 1017.3
20260904134402 29 180 3.2 8.0 0.00 0.00 0.00 68 1017.5
20260904133903 29 125 3.2 9.7 0.00 0.00 0.00 70 1017.5
20260904133404 28 120 3.2 8.0 0.00 0.00 0.00 71 1017.5
20260904132902 28 184 4.8 9.7 0.00 0.00 0.00 71 1017.4
20260904132402 28 141 1.6 8.0 0.00 0.00 0.00 74 1017.4
20260904131904 27 140 1.6 8.0 0.00 0.00 0.00 75 1017.4
20260904131402 27 163 4.8 8.0 0.00 0.00 0.00 78 1017.6
20260904130902 26 226 1.6 8.0 0.00 0.00 0.00 81 1017.6
20260904130404 26 230 4.8 8.0 0.00 0.00 0.00 81 1017.6
20260904125902 25 168 1.6 4.8 0.00 0.00 0.00 85 1017.4
20260904125402 25 205 0.0 3.2 0.00 0.00 0.00 87 1017.4
20260904124904 25 196 3.2 4.8 0.00 0.00 0.00 88 1017.4
20260904124402 24 240 3.2 4.8 0.00 0.00 0.00 91 1017.4
20260904123404 23 355 1.6 1.6 0.00 0.00 0.00 94 1017.2
20260904122903 23 355 0.0 1.6 0.00 0.00 0.00 94 1017.2
20260904121904 23 355 0.0 0.0 0.00 0.00 0.00 93 1017.2
20260904120903 22 355 0.0 0.0 0.00 0.00 0.00 93 1017.3
20260904120404 22 355 0.0 0.0 0.00 0.00 0.00 93 1017.3
20260904115402 22 355 0.0 0.0 0.00 0.00 0.00 93 1017.1
20260904114403 22 355 0.0 0.0 0.00 0.00 0.00 93 1017.0
20260904113903 22 355 0.0 0.0 0.00 0.00 0.00 93 1017.0
20260904113404 22 355 0.0 0.0 0.00 0.00 0.00 93 1017.0
20260904112903 22 355 0.0 0.0 0.00 0.00 0.00 93 1017.0
20260904112403 22 355 0.0 0.0 0.00 0.00 0.00 92 1016.8
20260904111904 22 355 0.0 0.0 0.00 0.00 0.00 92 1016.8
20260904111403 22 355 0.0 0.0 0.00 0.00 0.00 92 1016.8
20260904110903 22 355 0.0 0.0 0.00 0.00 0.00 92 1016.5
20260904105904 22 355 0.0 0.0 0.00 0.00 0.00 92 1016.5
20260904105402 22 355 0.0 0.0 0.00 0.00 0.00 92 1016.5
20260904104903 22 355 0.0 0.0 0.00 0.00 0.00 92 1016.5
20260904104404 22 355 0.0 0.0 0.00 0.00 0.00 92 1016.5
20260904103403 22 355 0.0 0.0 0.00 0.00 0.00 92 1016.4
20260904101902 22 355 0.0 0.0 0.00 0.00 0.00 92 1016.3
20260904101404 22 355 0.0 0.0 0.00 0.00 0.00 92 1016.4
20260904100903 22 355 0.0 0.0 0.00 0.00 0.00 92 1016.4
20260904100402 22 355 0.0 0.0 0.00 0.00 0.00 92 1016.4
20260904095904 22 355 0.0 0.0 0.00 0.00 0.00 92 1016.2
20260904095402 22 355 0.0 0.0 0.00 0.00 0.00 92 1016.2
20260904094902 23 355 0.0 0.0 0.00 0.00 0.00 92 1016.2
20260904094404 23 355 0.0 0.0 0.00 0.00 0.00 92 1016.0
20260904093902 23 355 0.0 0.0 0.00 0.00 0.00 92 1016.0
20260904093403 23 355 0.0 0.0 0.00 0.00 0.00 92 1016.0
20260904092902 23 355 0.0 0.0 0.00 0.00 0.00 92 1016.0
20260904092404 23 355 0.0 0.0 0.00 0.00 0.00 92 1016.0
20260904091902 23 355 0.0 0.0 0.00 0.00 0.00 92 1016.0
20260904091402 23 355 0.0 0.0 0.00 0.00 0.00 92 1016.0
20260904090905 23 355 0.0 0.0 0.00 0.00 0.00 92 1016.0
20260904090403 23 355 0.0 0.0 0.00 0.00 0.00 91 1016.0
20260904085903 23 355 0.0 0.0 0.00 0.00 0.00 91 1015.8
20260904085404 23 355 0.0 0.0 0.00 0.00 0.00 92 1015.8
20260904084903 23 355 0.0 0.0 0.00 0.00 0.00 91 1015.8
20260904083904 23 355 0.0 0.0 0.00 0.00 0.00 91 1015.9
20260904083403 23 355 0.0 0.0 0.00 0.00 0.00 91 1015.9
20260904082903 23 355 0.0 0.0 0.00 0.00 0.00 91 1015.9
20260904082404 23 355 0.0 0.0 0.00 0.00 0.00 91 1015.9
20260904081903 23 355 0.0 1.6 0.00 0.00 0.00 92 1015.9
20260904081403 23 355 0.0 1.6 0.00 0.00 0.00 91 1015.8
20260904080403 23 355 1.6 3.2 0.00 0.00 0.00 91 1015.8
20260904075404 23 355 0.0 1.6 0.00 0.00 0.00 91 1015.7
20260904074903 23 355 0.0 1.6 0.00 0.00 0.00 90 1015.7
20260904073403 23 355 0.0 1.6 0.00 0.00 0.00 90 1015.7
20260904072902 23 355 0.0 0.0 0.00 0.00 0.00 90 1015.7
20260904071903 23 355 0.0 0.0 0.00 0.00 0.00 90 1015.6
20260904071403 23 355 0.0 0.0 0.00 0.00 0.00 90 1015.6
20260904070903 23 355 0.0 0.0 0.00 0.00 0.00 90 1015.6
20260904070404 23 355 0.0 0.0 0.00 0.00 0.00 90 1015.6
20260904065903 23 355 0.0 1.6 0.00 0.00 0.00 90 1015.6
20260904065402 23 355 1.6 3.2 0.00 0.00 0.00 90 1015.6
20260904064904 23 355 0.0 0.0 0.00 0.00 0.00 89 1015.6
20260904064403 23 355 0.0 0.0 0.00 0.00 0.00 89 1015.7
20260904063404 23 355 0.0 1.6 0.00 0.00 0.00 89 1015.7
20260904062902 23 355 0.0 0.0 0.00 0.00 0.00 89 1015.8
20260904062403 23 355 0.0 1.6 0.00 0.00 0.00 89 1015.8
20260904061403 23 355 0.0 1.6 0.00 0.00 0.00 89 1015.9
20260904060405 23 355 0.0 0.0 0.00 0.00 0.00 89 1015.9
20260904055903 23 355 0.0 0.0 0.00 0.00 0.00 89 1016.1
20260904055403 23 355 0.0 0.0 0.00 0.00 0.00 88 1016.1
20260904054905 23 355 0.0 0.0 0.00 0.00 0.00 88 1016.1
20260904054403 23 355 0.0 0.0 0.00 0.00 0.00 88 1016.1
20260904053902 23 355 0.0 0.0 0.00 0.00 0.00 88 1016.1
20260904053404 23 355 0.0 0.0 0.00 0.00 0.00 88 1016.1
20260904052903 23 355 0.0 0.0 0.00 0.00 0.00 88 1016.1
20260904052403 23 355 0.0 0.0 0.00 0.00 0.00 88 1016.1
20260904051904 24 355 0.0 1.6 0.00 0.00 0.00 88 1016.1
20260904051403 24 355 0.0 1.6 0.00 0.00 0.00 88 1016.1
20260904050903 24 355 1.6 1.6 0.00 0.00 0.00 88 1016.1
20260904050404 24 355 0.0 1.6 0.00 0.00 0.00 88 1016.1
20260904045903 24 355 1.6 3.2 0.00 0.00 0.00 88 1016.2
20260904045403 24 355 1.6 3.2 0.00 0.00 0.00 88 1016.2
20260904044905 24 355 1.6 1.6 0.00 0.00 0.00 87 1016.2
20260904044403 24 355 0.0 1.6 0.00 0.00 0.00 87 1016.3
20260904043405 24 355 1.6 1.6 0.00 0.00 0.00 87 1016.3
20260904042903 24 355 0.0 1.6 0.00 0.00 0.00 86 1016.5
20260904042403 24 355 0.0 0.0 0.00 0.00 0.00 86 1016.5
20260904041403 24 355 0.0 1.6 0.00 0.00 0.00 86 1016.5
20260904040903 24 355 0.0 0.0 0.00 0.00 0.00 85 1016.5
20260904040404 24 355 0.0 0.0 0.00 0.00 0.00 86 1016.5
20260904035903 24 355 0.0 0.0 0.00 0.00 0.00 86 1016.5
20260904034403 25 355 0.0 0.0 0.00 0.00 0.00 85 1016.6
20260904032903 25 355 0.0 1.6 0.00 0.00 0.00 85 1016.6
20260904032403 25 355 1.6 3.2 0.00 0.00 0.00 84 1016.6
20260904030903 25 355 0.0 1.6 0.00 0.00 0.00 84 1016.8
20260904030404 25 355 1.6 1.6 0.00 0.00 0.00 83 1016.8
20260904025903 25 355 0.0 1.6 0.00 0.00 0.00 83 1016.8
20260904025403 25 355 0.0 1.6 0.00 0.00 0.00 82 1016.8
20260904024904 25 355 0.0 1.6 0.00 0.00 0.00 82 1016.8
20260904024403 25 355 0.0 3.2 0.00 0.00 0.00 82 1016.8
20260904023405 25 355 1.6 3.2 0.00 0.00 0.00 81 1016.8
20260904022903 25 355 0.0 1.6 0.00 0.00 0.00 81 1016.5
20260904022403 25 355 0.0 0.0 0.00 0.00 0.00 81 1016.3
20260904021904 25 355 0.0 0.0 0.00 0.00 0.00 81 1016.3
20260904021403 25 355 0.0 1.6 0.00 0.00 0.00 81 1016.1
20260904020903 25 355 1.6 3.2 0.00 0.00 0.00 81 1016.1
20260904015903 25 355 0.0 0.0 0.00 0.00 0.00 79 1016.1
20260904015403 26 355 0.0 0.0 0.00 0.00 0.00 78 1016.1
20260904014905 26 355 0.0 0.0 0.00 0.00 0.00 78 1016.1
20260904014403 26 355 0.0 0.0 0.00 0.00 0.00 78 1015.9
20260904013903 26 355 0.0 0.0 0.00 0.00 0.00 77 1015.9
20260904013404 26 355 0.0 0.0 0.00 0.00 0.00 78 1015.9
20260904012903 26 355 0.0 0.0 0.00 0.00 0.00 77 1015.7
20260904012403 26 355 0.0 0.0 0.00 0.00 0.00 76 1015.7
20260904011904 26 355 0.0 0.0 0.00 0.00 0.00 76 1015.7
20260904011403 26 355 0.0 1.6 0.00 0.00 0.00 76 1015.7
20260904010903 26 355 0.0 0.0 0.00 0.00 0.00 75 1015.7
20260904010405 26 355 0.0 0.0 0.00 0.00 0.00 75 1015.7
20260904005904 26 355 0.0 0.0 0.00 0.00 0.00 74 1015.2
20260904005403 26 355 0.0 0.0 0.00 0.00 0.00 74 1015.2
20260904004905 26 355 0.0 0.0 0.00 0.00 0.00 74 1015.2
20260904004403 27 355 1.6 1.6 0.00 0.00 0.00 73 1014.9
20260904003904 27 355 0.0 1.6 0.00 0.00 0.00 73 1014.9
20260904002903 27 355 0.0 1.6 0.00 0.00 0.00 73 1014.9
20260904002403 27 355 0.0 1.6 0.00 0.00 0.00 73 1014.9
20260904001904 27 281 0.0 3.2 0.00 0.00 0.00 72 1014.9
20260904000903 28 245 0.0 1.6 0.00 0.00 0.00 71 1014.8
20260903235903 28 245 0.0 0.0 0.00 0.00 0.00 70 1014.5
20260903235403 28 245 0.0 0.0 0.00 0.00 0.00 70 1014.5
20260903233903 28 245 0.0 0.0 0.00 0.00 0.00 69 1014.5
20260903233405 28 245 0.0 0.0 0.00 0.00 0.00 68 1014.5
20260903232904 29 245 0.0 0.0 0.00 0.00 0.00 68 1014.5
20260903232403 29 245 0.0 0.0 0.00 0.00 0.00 69 1014.5
20260903231905 29 245 0.0 0.0 0.00 0.00 0.00 68 1014.5
20260903230903 29 245 0.0 0.0 0.00 0.00 0.00 68 1014.6
20260903230405 29 245 0.0 0.0 0.00 0.00 0.00 68 1014.6
20260903225903 30 245 0.0 0.0 0.00 0.00 0.00 67 1014.6
20260903225403 30 245 0.0 0.0 0.00 0.00 0.00 68 1014.6
20260903224905 30 245 0.0 0.0 0.00 0.00 0.00 68 1014.6
20260903224403 30 245 0.0 0.0 0.00 0.00 0.00 69 1014.7
20260903223903 30 245 0.0 0.0 0.00 0.00 0.00 67 1014.7
20260903223405 30 245 0.0 0.0 0.00 0.00 0.00 67 1014.7
20260903222903 30 245 0.0 1.6 0.00 0.00 0.00 67 1014.7
20260903222404 31 245 1.6 3.2 0.00 0.00 0.00 66 1014.7
20260903221404 31 245 0.0 1.6 0.00 0.00 0.00 65 1014.5
20260903220404 31 245 0.0 3.2 0.00 0.00 0.00 66 1014.5
20260903215905 32 245 0.0 3.2 0.00 0.00 0.00 67 1014.5
20260903214904 32 242 3.2 4.8 0.00 0.00 0.00 65 1014.5
20260903214404 32 274 0.0 1.6 0.00 0.00 0.00 63 1014.7
20260903213903 33 274 1.6 3.2 0.00 0.00 0.00 63 1014.7
20260903213404 34 274 0.0 3.2 0.00 0.00 0.00 55 1014.8
20260903212904 35 169 3.2 8.0 0.00 0.00 0.00 50 1014.8
20260903212404 35 85 3.2 4.8 0.00 0.00 0.00 49 1014.8
20260903211904 36 5 1.6 4.8 0.00 0.00 0.00 51 1014.8
20260903211405 36 5 3.2 9.7 0.00 0.00 0.00 48 1014.8
20260903210903 36 27 1.6 4.8 0.00 0.00 0.00 51 1014.8
20260903210404 37 30 0.0 1.6 0.00 0.00 0.00 49 1015.0
20260903205904 37 30 1.6 3.2 0.00 0.00 0.00 48 1014.8
20260903205404 38 30 0.0 1.6 0.00 0.00 0.00 46 1014.8
20260903204903 38 34 1.6 3.2 0.00 0.00 0.00 42 1014.8
20260903204404 37 0 3.2 4.8 0.00 0.00 0.00 40 1015.2
20260903203903 38 126 4.8 11.3 0.00 0.00 0.00 40 1015.2
20260903203404 38 46 0.0 3.2 0.00 0.00 0.00 43 1015.2
20260903202905 38 46 1.6 3.2 0.00 0.00 0.00 41 1015.2
20260903202404 38 129 1.6 8.0 0.00 0.00 0.00 41 1015.2
20260903201903 38 355 3.2 4.8 0.00 0.00 0.00 45 1015.2
20260903201406 38 17 1.6 3.2 0.00 0.00 0.00 43 1015.3
20260903200903 38 63 1.6 8.0 0.00 0.00 0.00 44 1015.3
20260903195404 37 98 1.6 4.8 0.00 0.00 0.00 46 1015.6
20260903194904 37 355 1.6 3.2 0.00 0.00 0.00 46 1015.6
20260903194404 36 49 0.0 3.2 0.00 0.00 0.00 49 1016.2
20260903193904 36 146 1.6 3.2 0.00 0.00 0.00 45 1016.2
20260903193404 36 78 1.6 4.8 0.00 0.00 0.00 47 1016.2
20260903192904 36 55 1.6 4.8 0.00 0.00 0.00 47 1016.2
20260903192405 36 49 1.6 4.8 0.00 0.00 0.00 48 1016.2
20260903191403 36 28 3.2 4.8 0.00 0.00 0.00 52 1016.2
20260903190905 35 44 1.6 3.2 0.00 0.00 0.00 50 1016.2
20260903190404 36 44 1.6 3.2 0.00 0.00 0.00 49 1016.2
20260903185904 36 51 1.6 4.8 0.00 0.00 0.00 47 1016.2
20260903185404 37 68 3.2 8.0 0.00 0.00 0.00 47 1016.2
20260903184404 37 333 1.6 4.8 0.00 0.00 0.00 45 1016.4
20260903183403 37 30 1.6 4.8 0.00 0.00 0.00 44 1016.4
20260903182904 38 267 4.8 8.0 0.00 0.00 0.00 42 1016.7
20260903181403 37 17 1.6 4.8 0.00 0.00 0.00 45 1016.7
20260903180905 36 41 1.6 4.8 0.00 0.00 0.00 46 1016.7
20260903180404 36 5 1.6 8.0 0.00 0.00 0.00 46 1016.8
20260903175904 37 244 4.8 8.0 0.00 0.00 0.00 45 1016.8
20260903175405 36 22 3.2 4.8 0.00 0.00 0.00 46 1016.8
20260903174904 36 291 1.6 4.8 0.00 0.00 0.00 47 1016.8
20260903174403 36 31 3.2 11.3 0.00 0.00 0.00 49 1017.1
20260903173905 36 19 1.6 4.8 0.00 0.00 0.00 51 1017.1
20260903173403 36 221 1.6 4.8 0.00 0.00 0.00 50 1017.1
20260903172904 36 247 1.6 4.8 0.00 0.00 0.00 47 1017.2
20260903172405 36 11 1.6 4.8 0.00 0.00 0.00 50 1017.3
20260903171904 36 331 0.0 4.8 0.00 0.00 0.00 49 1017.3
20260903171404 36 42 1.6 4.8 0.00 0.00 0.00 51 1017.6
20260903170404 36 155 1.6 4.8 0.00 0.00 0.00 48 1017.6
20260903165903 35 163 3.2 4.8 0.00 0.00 0.00 46 1017.7
20260903164904 35 87 1.6 4.8 0.00 0.00 0.00 49 1017.7
20260903164404 35 40 1.6 4.8 0.00 0.00 0.00 51 1018.0
20260903163905 35 318 1.6 4.8 0.00 0.00 0.00 53 1018.0
20260903163404 35 132 3.2 4.8 0.00 0.00 0.00 52 1018.0
20260903162904 35 72 3.2 4.8 0.00 0.00 0.00 54 1018.0
20260903162406 34 148 0.0 4.8 0.00 0.00 0.00 54 1018.0
20260903161404 34 173 3.2 4.8 0.00 0.00 0.00 54 1018.1
20260903160905 33 332 1.6 4.8 0.00 0.00 0.00 58 1018.1
20260903155904 34 43 1.6 4.8 0.00 0.00 0.00 55 1018.1
20260903154903 34 46 1.6 4.8 0.00 0.00 0.00 57 1018.1
20260903154404 33 120 0.0 4.8 0.00 0.00 0.00 57 1018.0
20260903153905 33 139 3.2 4.8 0.00 0.00 0.00 57 1018.0
20260903152904 33 16 1.6 4.8 0.00 0.00 0.00 59 1018.0
20260903152405 33 46 3.2 4.8 0.00 0.00 0.00 58 1018.0
20260903151904 33 81 1.6 3.2 0.00 0.00 0.00 56 1018.0
20260903151404 33 30 1.6 3.2 0.00 0.00 0.00 57 1018.1
20260903150404 33 21 1.6 4.8 0.00 0.00 0.00 62 1018.1
20260903145904 32 60 1.6 3.2 0.00 0.00 0.00 62 1018.0
20260903144904 32 91 1.6 3.2 0.00 0.00 0.00 64 1018.0
20260903144404 32 52 1.6 4.8 0.00 0.00 0.00 64 1018.0
20260903143905 32 60 1.6 4.8 0.00 0.00 0.00 63 1018.0
20260903143404 31 102 1.6 4.8 0.00 0.00 0.00 63 1018.0
20260903142904 31 122 3.2 8.0 0.00 0.00 0.00 62 1018.0
20260903142405 31 144 3.2 8.0 0.00 0.00 0.00 62 1018.0
20260903141904 31 152 6.4 9.7 0.00 0.00 0.00 63 1018.0